Location: Giessen
(50.5800°N, 8.7028°E)
Time: 10:55:38
(UTC+02:00)

ISS - Visible Passes

Search period start: 24 July 2017 00:00
Search period end: 03 August 2017 00:00
Orbit: 400 x 408 km, 51.6° (Epoch: 24 July)

Date Brightness Start Highest point End Pass type
(mag) Time Alt. Az. Time Alt. Az. Time Alt. Az.
24 Jul -3.7 00:59:39 10° W 01:02:55 76° N 01:06:11 10° E visible
24 Jul -3.9 02:36:14 10° WNW 02:39:30 88° NNE 02:42:46 10° ESE visible
24 Jul -3.0 04:12:52 10° W 04:15:46 30° SSW 04:18:40 10° SSE visible
24 Jul -3.0 22:31:28 10° SSW 22:34:20 29° SSE 22:37:14 10° E visible
25 Jul -3.9 00:07:20 10° WSW 00:10:36 88° N 00:13:53 10° ENE visible
25 Jul -3.7 01:43:55 10° W 01:47:11 75° N 01:50:26 10° E visible
25 Jul -3.6 03:20:27 10° W 03:23:34 44° SSW 03:26:43 10° SE visible
25 Jul -1.7 04:58:54 10° SW 04:59:25 10° SW 04:59:55 10° SW visible
25 Jul -4.0 23:15:02 10° WSW 23:18:17 72° SSE 23:21:33 10° ENE visible
26 Jul -3.6 00:51:34 10° W 00:54:50 71° N 00:56:44 22° E visible
26 Jul -2.0 02:28:05 10° WNW 02:29:16 20° W 02:29:16 20° W visible
26 Jul -3.7 22:22:51 10° SW 22:26:00 50° SSE 22:29:11 10° E visible
26 Jul -3.7 23:59:11 10° W 00:02:26 73° N 00:05:20 13° E visible
27 Jul -2.9 01:35:45 10° WNW 01:37:56 39° W 01:37:56 39° W visible
27 Jul -3.8 23:06:49 10° W 23:10:05 83° N 23:13:21 10° ENE visible
28 Jul -3.8 00:43:23 10° WNW 00:46:40 79° N 00:46:57 70° ENE visible
28 Jul -3.9 22:14:28 10° WSW 22:17:44 79° SSE 22:20:59 10° ENE visible
28 Jul -3.7 23:51:01 10° W 23:54:16 71° N 23:56:05 24° E visible
29 Jul -1.8 01:27:32 10° WNW 01:28:42 20° W 01:28:42 20° W visible
29 Jul -3.6 22:58:36 10° W 23:01:52 71° N 23:05:07 10° E visible
30 Jul -3.6 00:35:09 10° WNW 00:37:54 59° W 00:37:54 59° W visible
30 Jul -3.7 22:06:11 10° W 22:09:27 79° N 22:12:43 10° ENE visible
30 Jul -3.9 23:42:46 10° WNW 23:46:02 83° NNE 23:47:07 39° E visible
31 Jul -1.2 01:19:21 10° W 01:19:44 12° W 01:19:44 12° W visible
31 Jul -3.7 22:50:21 10° W 22:53:37 73° N 22:56:21 14° E visible
01 Aug -2.7 00:26:52 10° W 00:28:58 33° W 00:28:58 33° W visible
01 Aug -3.6 21:57:55 10° W 22:01:10 71° N 22:04:25 10° E visible
01 Aug -4.0 23:34:26 10° WNW 23:37:42 72° SSW 23:38:14 56° SE visible
02 Aug -3.9 22:42:01 10° WNW 22:45:17 88° NNE 22:47:30 19° ESE visible
